#timestamp,LO_Frequency,Hit,StdDev 
1618396435.3,286046944.9,P
1618396455.2,286046944.5,P
1618396475.0,286046945.2,P
1618396475.9,286046945.2,Y
1618396495.8,286046998.3,P
1618396515.6,286046999.0,N
1618396535.4,286046996.5,N
1618396555.3,286046996.7,N
1618396575.1,286046997.4,N
1618396595.9,286046998.0,N
1618396615.7,286046996.1,N
1618396635.5,286046993.7,N
1618396655.4,286046996.1,N
1618396675.2,286046993.8,N
1618396695.0,286046991.7,N
1618396695.9,286046991.7,N
1618396715.8,286046990.3,N
1618396735.6,286046991.0,N
1618396755.4,286046990.4,N
1618396775.3,286046991.2,N
1618396795.1,286046988.9,N
1618396815.9,286046990.5,N
1618396835.7,286046990.9,N
1618396855.5,286046988.6,N
1618396875.4,286046988.5,N
1618396895.2,286046989.5,N
1618396915.0,286046987.1,N
1618396916.0,286046987.1,N
1618396935.8,286046987.5,N
1618396955.6,286046985.9,N
1618396975.5,286046986.4,N
1618396995.3,286046986.0,N
1618397015.1,286046984.4,N
1618397035.9,286046984.4,N
1618397055.7,286046982.1,Y
1618397075.6,286046992.6,P
1618397095.4,286046994.4,P
1618397115.2,286046991.8,P
1618397135.1,286046992.1,Y
1618397136.0,286046992.1,P
1618397155.8,286047002.5,P
1618397175.6,286047001.5,N
1618397195.5,286047001.4,N
1618397215.3,286047002.1,N
1618397235.2,286047002.4,N
1618397255.9,286047002.1,N
1618397275.7,286047002.4,N
1618397295.6,286047002.5,N
1618397315.4,286047000.3,N
1618397335.2,286047000.5,N
1618397355.1,286047000.5,N
1618397356.0,286047000.5,N
1618397375.8,286046998.1,N
1618397395.7,286046998.7,N
1618397415.5,286046999.1,N
1618397435.3,286046999.0,N
1618397455.2,286046999.6,N
1618397475.0,286046996.5,N
1618397475.9,286046996.5,N
1618397495.7,286046999.6,N
1618397515.6,286046999.5,N
1618397535.4,286046996.5,N
1618397555.3,286046999.2,N
1618397575.1,286046996.8,N
1618397576.0,286046996.8,N
1618397595.8,286046994.9,N
1618397615.7,286046995.1,N
1618397635.5,286046995.1,N
1618397655.3,286046993.7,N
1618397675.2,286046993.8,N
1618397695.0,286046994.8,N
1618397695.9,286046994.8,N
1618397715.8,286046992.6,N
1618397735.6,286046993.1,N
1618397755.4,286046988.9,Y
1618397775.3,286046992.6,P
1618397795.1,286046993.0,N
1618397815.8,286046990.2,P
1618397835.7,286046993.1,N
1618397855.5,286046992.0,Y
1618397875.4,286046996.5,P
1618397895.2,286046997.7,N
1618397915.0,286046995.8,N
1618397915.9,286046995.8,N
1618397935.8,286046995.0,Y
1618397955.6,286046999.0,P
1618397975.5,286046999.1,N
1618397995.3,286046996.5,N
